• In Uzbekistan
  • List of Countries
  • For 7 days
  • Water Temperature
  • Satellite Maps
  • Weather Map
  • Weather Widgets
  • user-avatar
    Login

    Hourly Weather Nagykallo

    Today, 20 January, Saturday

    Time Temperature Precipitation Wind Pressure Humidity
    00:00 +1°C° 0 mm 1 mps 748 mmHg 91%
    01:00 -2°C° 0 mm 2 mps 747 mmHg 90%
    02:00 0°C° 0 mm 1 mps 747 mmHg 89%
    03:00 0°C° 0 mm 1 mps 747 mmHg 89%
    04:00 0°C° 0 mm 1 mps 748 mmHg 89%
    05:00 0°C° 0 mm 1 mps 748 mmHg 89%
    06:00 0°C° 0 mm 1 mps 748 mmHg 89%
    07:00 0°C° 0 mm 1 mps 748 mmHg 90%
    08:00 0°C° 0 mm 1 mps 748 mmHg 86%
    09:00 +1°C° 0 mm 1 mps 748 mmHg 82%
    10:00 +2°C° 0 mm 1 mps 748 mmHg 79%
    11:00 +2°C° 0 mm 2 mps 748 mmHg 76%
    12:00 +2°C° 0 mm 2 mps 748 mmHg 74%
    13:00 +3°C° 0 mm 2 mps 748 mmHg 72%
    14:00 +3°C° 0 mm 2 mps 747 mmHg 76%
    15:00 +2°C° 0 mm 2 mps 747 mmHg 80%
    16:00 +2°C° 0 mm 2 mps 747 mmHg 84%
    17:00 +1°C° 0.1 mm 2 mps 747 mmHg 85%
    18:00 0°C° 0.1 mm 3 mps 747 mmHg 86%
    19:00 0°C° 0.1 mm 3 mps 747 mmHg 88%
    20:00 0°C° 0 mm 3 mps 747 mmHg 88%
    21:00 0°C° 0 mm 3 mps 747 mmHg 89%
    22:00 -1°C° 0 mm 3 mps 747 mmHg 89%
    23:00 -1°C° 0 mm 3 mps 746 mmHg 90%

    Tomorrow, 21 January, Sunday

    Time Temperature Precipitation Wind Pressure Humidity
    00:00 -1°C° 0 mm 2 mps 746 mmHg 90%
    01:00 -2°C° 0 mm 2 mps 746 mmHg 90%
    02:00 -2°C° 0 mm 2 mps 746 mmHg 89%
    03:00 -2°C° 0 mm 2 mps 746 mmHg 88%
    04:00 -2°C° 0 mm 2 mps 746 mmHg 87%
    05:00 -2°C° 0 mm 3 mps 745 mmHg 86%
    06:00 -1°C° 0 mm 3 mps 745 mmHg 84%
    07:00 -2°C° 0 mm 4 mps 745 mmHg 82%
    08:00 -2°C° 0 mm 4 mps 744 mmHg 79%
    09:00 -1°C° 0 mm 5 mps 744 mmHg 75%
    10:00 0°C° 0 mm 5 mps 744 mmHg 71%
    11:00 0°C° 0.1 mm 4 mps 744 mmHg 70%
    12:00 0°C° 0.1 mm 4 mps 744 mmHg 68%
    13:00 +1°C° 0.1 mm 4 mps 743 mmHg 66%
    14:00 +1°C° 0.1 mm 3 mps 743 mmHg 69%
    15:00 +1°C° 0.1 mm 3 mps 744 mmHg 73%
    16:00 +1°C° 0.1 mm 3 mps 744 mmHg 76%
    17:00 0°C° 0.2 mm 3 mps 744 mmHg 78%
    18:00 0°C° 0.2 mm 3 mps 744 mmHg 80%
    19:00 0°C° 0.2 mm 3 mps 745 mmHg 82%
    20:00 0°C° 0.2 mm 3 mps 745 mmHg 83%
    21:00 0°C° 0.2 mm 3 mps 745 mmHg 85%
    22:00 0°C° 0.2 mm 3 mps 746 mmHg 86%
    23:00 -1°C° 0.1 mm 3 mps 746 mmHg 86%

    Day after tomorrow, 22 January, Monday

    Time Temperature Precipitation Wind Pressure Humidity
    00:00 -1°C° 0.1 mm 3 mps 746 mmHg 87%
    01:00 -1°C° 0.1 mm 3 mps 746 mmHg 87%
    02:00 -1°C° 0 mm 3 mps 746 mmHg 87%
    03:00 -3°C° 0 mm 4 mps 747 mmHg 86%
    04:00 -3°C° 0 mm 4 mps 747 mmHg 85%
    05:00 -3°C° 0 mm 4 mps 747 mmHg 85%
    06:00 -3°C° 0 mm 4 mps 748 mmHg 84%
    07:00 -3°C° 0 mm 4 mps 748 mmHg 84%
    08:00 -2°C° 0 mm 4 mps 748 mmHg 81%
    09:00 -2°C° 0 mm 5 mps 749 mmHg 77%
    10:00 -1°C° 0 mm 5 mps 749 mmHg 74%
    11:00 0°C° 0 mm 5 mps 749 mmHg 72%
    12:00 0°C° 0 mm 5 mps 749 mmHg 69%
    13:00 +1°C° 0 mm 4 mps 749 mmHg 67%
    14:00 0°C° 0 mm 4 mps 750 mmHg 71%
    15:00 -1°C° 0 mm 4 mps 750 mmHg 74%
    16:00 -1°C° 0 mm 3 mps 750 mmHg 78%
    17:00 -1°C° 0 mm 3 mps 751 mmHg 79%
    18:00 -2°C° 0 mm 3 mps 752 mmHg 80%
    19:00 -2°C° 0 mm 3 mps 752 mmHg 82%
    20:00 -2°C° 0 mm 3 mps 752 mmHg 83%
    21:00 -3°C° 0 mm 2 mps 753 mmHg 84%
    22:00 -3°C° 0 mm 2 mps 753 mmHg 85%
    23:00 -3°C° 0 mm 2 mps 753 mmHg 85%

    23 January, Tuesday

    Time Temperature Precipitation Wind Pressure Humidity
    00:00 -3°C° 0 mm 2 mps 754 mmHg 86%
    01:00 -1°C° 0 mm 1 mps 754 mmHg 86%
    02:00 -1°C° 0 mm 1 mps 754 mmHg 86%
    03:00 -1°C° 0 mm 1 mps 754 mmHg 86%
    04:00 -1°C° 0 mm 1 mps 755 mmHg 85%
    05:00 -1°C° 0 mm 1 mps 755 mmHg 85%
    06:00 -1°C° 0 mm 1 mps 755 mmHg 85%
    07:00 -1°C° 0 mm 1 mps 756 mmHg 84%
    08:00 -1°C° 0 mm 1 mps 756 mmHg 80%
    09:00 0°C° 0 mm 1 mps 757 mmHg 76%
    10:00 -1°C° 0 mm 2 mps 757 mmHg 72%
    11:00 +2°C° 0 mm 1 mps 757 mmHg 69%
    12:00 +2°C° 0 mm 1 mps 757 mmHg 67%
    13:00 +3°C° 0 mm 1 mps 758 mmHg 64%
    14:00 +2°C° 0 mm 1 mps 758 mmHg 68%
    15:00 +2°C° 0 mm 1 mps 758 mmHg 71%
    16:00 +1°C° 0 mm 1 mps 759 mmHg 74%
    17:00 +1°C° 0 mm 1 mps 759 mmHg 75%
    18:00 0°C° 0 mm 1 mps 760 mmHg 77%
    19:00 0°C° 0 mm 1 mps 761 mmHg 78%
    20:00 0°C° 0 mm 1 mps 761 mmHg 78%
    21:00 0°C° 0 mm 1 mps 762 mmHg 78%
    22:00 -1°C° 0 mm 1 mps 762 mmHg 78%
    23:00 -1°C° 0 mm 1 mps 762 mmHg 78%

    24 January, Wednesday

    Time Temperature Precipitation Wind Pressure Humidity
    00:00 -1°C° 0 mm 1 mps 762 mmHg 78%
    01:00 -1°C° 0 mm 1 mps 763 mmHg 78%
    02:00 -1°C° 0 mm 1 mps 763 mmHg 78%
    03:00 -1°C° 0 mm 1 mps 763 mmHg 78%
    04:00 -1°C° 0 mm 1 mps 763 mmHg 78%
    05:00 -1°C° 0 mm 1 mps 763 mmHg 78%
    06:00 -1°C° 0 mm 1 mps 763 mmHg 79%
    07:00 -1°C° 0 mm 1 mps 764 mmHg 79%
    08:00 0°C° 0 mm 1 mps 764 mmHg 75%
    09:00 0°C° 0 mm 1 mps 764 mmHg 72%
    10:00 +1°C° 0 mm 1 mps 764 mmHg 68%
    11:00 +2°C° 0 mm 1 mps 764 mmHg 66%
    12:00 +3°C° 0 mm 1 mps 764 mmHg 64%
    13:00 +3°C° 0 mm 1 mps 764 mmHg 62%
    14:00 +3°C° 0 mm 1 mps 764 mmHg 66%
    15:00 +2°C° 0 mm 1 mps 764 mmHg 70%
    16:00 +1°C° 0 mm 1 mps 764 mmHg 75%
    17:00 +1°C° 0 mm 1 mps 764 mmHg 77%
    18:00 0°C° 0 mm 1 mps 764 mmHg 79%
    19:00 0°C° 0 mm 1 mps 764 mmHg 82%
    20:00 0°C° 0 mm 1 mps 764 mmHg 83%
    21:00 0°C° 0 mm 1 mps 764 mmHg 84%
    22:00 0°C° 0 mm 1 mps 764 mmHg 84%
    23:00 0°C° 0 mm 1 mps 764 mmHg 85%

    25 January, Thursday

    Time Temperature Precipitation Wind Pressure Humidity
    00:00 0°C° 0 mm 1 mps 764 mmHg 85%
    01:00 0°C° 0 mm 1 mps 764 mmHg 85%
    02:00 0°C° 0 mm 1 mps 763 mmHg 85%
    03:00 0°C° 0 mm 1 mps 763 mmHg 85%
    04:00 -1°C° 0 mm 1 mps 763 mmHg 84%
    05:00 -3°C° 0 mm 2 mps 763 mmHg 84%
    06:00 -3°C° 0 mm 2 mps 762 mmHg 84%
    07:00 -3°C° 0 mm 2 mps 762 mmHg 83%
    08:00 -2°C° 0 mm 2 mps 762 mmHg 78%
    09:00 -1°C° 0 mm 2 mps 762 mmHg 72%
    10:00 +1°C° 0 mm 2 mps 761 mmHg 67%
    11:00 +1°C° 0 mm 2 mps 761 mmHg 64%
    12:00 +2°C° 0 mm 2 mps 760 mmHg 61%
    13:00 +4°C° 0 mm 1 mps 760 mmHg 58%
    14:00 +3°C° 0 mm 1 mps 760 mmHg 62%
    15:00 +2°C° 0 mm 1 mps 759 mmHg 66%
    16:00 +2°C° 0 mm 1 mps 759 mmHg 70%
    17:00 +1°C° 0 mm 1 mps 759 mmHg 71%
    18:00 +1°C° 0 mm 1 mps 759 mmHg 73%
    19:00 0°C° 0 mm 1 mps 758 mmHg 75%
    20:00 0°C° 0 mm 1 mps 758 mmHg 75%
    21:00 0°C° 0 mm 1 mps 758 mmHg 75%
    22:00 0°C° 0 mm 1 mps 758 mmHg 75%
    23:00 0°C° 0 mm 1 mps 758 mmHg 74%
    Show more